Regional Weather Roundup
Issued by NWS Newport/Morehead, NC

Current Version | Previous Version | Graphics & Text | Print | Product List | Glossary On
Versions: 1 2 3 4 5 6 7 8 9 10 11 12 13 14 15 16 17 18 19 20 21 22 23 24 25 26 27 28 29 30 31 32 33 34 35 36 37 38 39 40 41 42 43 44 45 46 47 48 49 50
000 ASUS42 KMHX 201925 RWRMHX WEATHER ROUNDUP FOR EASTERN NORTH CAROLINA NATIONAL WEATHER SERVICE NEWPORT/MOREHEAD CITY NC 200 PM EST MON NOV 20 2017 NOTE: "FAIR" INDICATES FEW OR NO CLOUDS BELOW 12,000 FEET WITH NO SIGNIFICANT WEATHER AND/OR OBSTRUCTIONS TO VISIBILITY NCZ015>017-031-032-045>047-102-103-202000- NORTH COAST CITY SKY/WX TMP DP RH WIND PRES REMARKS EDENTON SUNNY 55 29 36 CALM 30.24S ELIZABETH CITY SUNNY 55 29 36 W7 30.23F KITTY HAWK CLEAR 50 29 44 CALM 30.22S MANTEO SUNNY 49 30 47 NW8 30.24S $$ NCZ045>047-081-094-103-104-202000- CENTRAL COAST CITY SKY/WX TMP DP RH WIND PRES REMARKS FRISCO SUNNY 55 34 45 VRB5 30.23R $$ NCZ095-097-098-100-101-202000- SOUTHERN COAST CITY SKY/WX TMP DP RH WIND PRES REMARKS BEAUFORT SUNNY 56 31 38 NW5 30.23F CEDAR ISLAND NOT AVBL JACKSONVILLE SUNNY 57 29 34 NW7 30.23F PINEY ISLAND N/A N/A N/A N/A N7 30.23S WILMINGTON SUNNY 60 28 29 N6 30.23F $$ NCZ011>013-027>030-043-044-078>080-089-090>093-098-202000- COASTAL PLAIN CITY SKY/WX TMP DP RH WIND PRES REMARKS AHOSKIE SUNNY 53 25 33 NW5 30.24S CLINTON SUNNY 58 29 33 CALM 30.24F ELIZABETHTOWN NOT AVBL GOLDSBORO SUNNY 57 25 29 S3 30.22F GREENVILLE SUNNY 55 27 33 NW7 30.24F HAVELOCK SUNNY 57 31 37 N5 30.24F KENANSVILLE SUNNY 57 25 28 N6 30.23F KINSTON SUNNY 55 25 30 CALM 30.24F NEW BERN SUNNY 56 28 34 CALM 30.24F RICHLANDS SUNNY 57 27 31 N6 30.23F ROCKY MOUNT SUNNY 54 26 34 NW6 30.24F WASHINGTON SUNNY 56 27 32 CALM 30.24S WHITEVILLE SUNNY 58 26 28 CALM 30.23S $$ AMZ130-135-150-152-154-156-158-170-250-252-270-ANZ085-086-088-633-658-670-202000- MARINE OBSERVATIONS STATION/POSITION TIME TEMP WIND PRES WAVE SWELL AIR SEA DIR/SP/G HT/PER HT/PER (UTC) (F) (DEG/KT/KT) (MB) (FT/S) (FT/S) CHESAPEAKE LIGHT NOT AVBL 64 E VA BEACH 1850 50 60 300/ 12/ 17 1023.4 5/ 7 3/ 7 DUCK 1900 50 60 10/ 5/ 7 1023.2 2 E DUCK 1900 61 N/A 2/ 5 OREGON INLET 1900 320/ 9/ 13 1023.6 13E OREGON INLT 1848 62 N/A 4/ 6 3/ 6 HATTERAS CG 1900 51 58 350/ 9/ 10 1023.4 DIAMOND BUOY 1910 52 65 330/ 10/ 14 1023.9 CAPE LOOKOUT 1900 330/ 5/ 7 1023.9 BEAUFORT LAB 1900 53 59 30/ 5/ 6 1023.6 30 SE NEW RVR IN 1908 53 67 20/ 8/ 12 1023.6 30 SE NEW RVR IN 1900 67 N/A 3/ 4 27 SE WRIGHTSVLE 1908 54 68 20/ 12/ 19 1023.5 5 SE WRIGHTSVLE 1908 55 64 20/ 6/ 10 1023.6 225 S CAPE HAT 1850 66 77 40/ 14/ 19 1021.3 6/ 7 5/ 7 41 SE CHARLESTON 1910 59 74 40/ 12/ 17 1023.3 $$

USA.gov is the U.S. government's official web portal to all federal, state and local government web resources and services.